| time (UTC) | temp C | wind direction | speed KPH | gust KPH | rain 1hr cm | rain 24hr cm | rain mn cm | humidity % | barometer mb |
| 20260506230005 | 3 | 285 | 3.2 | 6.4 | 0.00 | 1.85 | 0.00 | 99 | 1005.3 |
| 20260506225506 | 3 | 286 | 3.2 | 6.4 | 0.00 | 1.85 | 0.00 | 99 | 1005.2 |
| 20260506224505 | 4 | 261 | 3.2 | 6.4 | 0.00 | 1.85 | 0.00 | 99 | 1005.2 |
| 20260506224005 | 3 | 239 | 3.2 | 12.9 | 0.00 | 1.85 | 0.00 | 99 | 1005.3 |
| 20260506223505 | 5 | 237 | 1.6 | 12.9 | 0.00 | 1.85 | 0.00 | 99 | 1005.2 |
| 20260506222505 | 5 | 141 | 3.2 | 14.5 | 0.00 | 1.85 | 0.00 | 99 | 1005.0 |
| 20260506220506 | 3 | 297 | 3.2 | 9.7 | 0.03 | 1.85 | 0.00 | 99 | 1005.2 |
| 20260506220009 | 3 | 309 | 3.2 | 6.4 | 0.03 | 1.85 | 0.00 | 99 | 1005.3 |
| 20260506215506 | 3 | 312 | 3.2 | 6.4 | 0.03 | 1.85 | 1.85 | 99 | 1005.1 |
| 20260506215006 | 3 | 327 | 3.2 | 11.3 | 0.03 | 1.85 | 1.85 | 99 | 1004.9 |
| 20260506214006 | 3 | 325 | 3.2 | 6.4 | 0.03 | 1.85 | 1.85 | 99 | 1005.0 |
| 20260506213005 | 3 | 311 | 3.2 | 6.4 | 0.03 | 1.85 | 1.85 | 99 | 1005.1 |
| 20260506212005 | 3 | 325 | 3.2 | 6.4 | 0.03 | 1.88 | 1.85 | 99 | 1005.3 |
| 20260506211506 | 3 | 15 | 3.2 | 6.4 | 0.03 | 1.93 | 1.85 | 99 | 1005.1 |
| 20260506211006 | 5 | 135 | 1.6 | 6.4 | 0.03 | 1.93 | 1.85 | 99 | 1005.2 |
| 20260506210005 | 5 | 99 | 3.2 | 6.4 | 0.00 | 1.88 | 1.83 | 99 | 1004.8 |
| 20260506205506 | 5 | 110 | 0.0 | 11.3 | 0.00 | 1.88 | 1.83 | 99 | 1005.0 |
| 20260506205006 | 5 | 112 | 1.6 | 11.3 | 0.00 | 1.88 | 1.83 | 99 | 1004.9 |
| 20260506204505 | 4 | 122 | 6.4 | 11.3 | 0.00 | 1.88 | 1.83 | 99 | 1004.8 |
| 20260506204006 | 5 | 136 | 3.2 | 11.3 | 0.00 | 1.88 | 1.83 | 99 | 1005.1 |
| 20260506203505 | 4 | 138 | 3.2 | 11.3 | 0.00 | 1.98 | 1.83 | 99 | 1004.8 |
| 20260506203006 | 4 | 138 | 8.0 | 11.3 | 0.00 | 2.01 | 1.83 | 99 | 1005.1 |
| 20260506202506 | 4 | 124 | 1.6 | 11.3 | 0.00 | 2.01 | 1.83 | 99 | 1005.0 |
| 20260506202006 | 4 | 116 | 4.8 | 11.3 | 0.00 | 2.01 | 1.83 | 99 | 1004.9 |
| 20260506201506 | 3 | 64 | 4.8 | 9.7 | 0.00 | 2.01 | 1.83 | 99 | 1004.8 |
| 20260506200505 | 3 | 53 | 4.8 | 6.4 | 0.00 | 2.03 | 1.83 | 99 | 1004.9 |
| 20260506200006 | 3 | 349 | 3.2 | 6.4 | 0.00 | 2.03 | 1.83 | 99 | 1004.7 |
| 20260506195506 | 3 | 295 | 1.6 | 6.4 | 0.00 | 2.03 | 1.83 | 99 | 1004.7 |
| 20260506195006 | 3 | 285 | 0.0 | 6.4 | 0.03 | 2.03 | 1.83 | 99 | 1004.7 |
| 20260506194506 | 3 | 93 | 3.2 | 6.4 | 0.10 | 2.03 | 1.83 | 99 | 1004.4 |
| 20260506194005 | 3 | 78 | 0.0 | 6.4 | 0.15 | 2.03 | 1.83 | 99 | 1004.6 |
| 20260506193506 | 3 | 307 | 3.2 | 6.4 | 0.18 | 2.06 | 1.83 | 99 | 1004.2 |
| 20260506193005 | 3 | 306 | 1.6 | 6.4 | 0.20 | 2.06 | 1.83 | 99 | 1004.3 |
| 20260506192505 | 3 | 308 | 3.2 | 6.4 | 0.20 | 2.06 | 1.83 | 99 | 1004.4 |
| 20260506192006 | 3 | 327 | 4.8 | 6.4 | 0.20 | 2.06 | 1.83 | 99 | 1004.2 |
| 20260506191505 | 3 | 343 | 1.6 | 6.4 | 0.20 | 2.11 | 1.83 | 99 | 1004.2 |
| 20260506191006 | 3 | 352 | 3.2 | 6.4 | 0.20 | 2.11 | 1.83 | 99 | 1004.2 |
| 20260506190505 | 4 | 358 | 4.8 | 6.4 | 0.20 | 2.11 | 1.83 | 99 | 1003.9 |
| 20260506190006 | 4 | 347 | 3.2 | 6.4 | 0.20 | 2.11 | 1.83 | 99 | 1003.6 |
| 20260506185005 | 4 | 123 | 1.6 | 6.4 | 0.18 | 2.06 | 1.80 | 99 | 1004.4 |
| 20260506184506 | 5 | 181 | 1.6 | 6.4 | 0.15 | 2.01 | 1.75 | 99 | 1004.5 |
| 20260506184006 | 4 | 293 | 1.6 | 6.4 | 0.10 | 1.96 | 1.68 | 99 | 1004.2 |
| 20260506183006 | 4 | 291 | 3.2 | 6.4 | 0.03 | 1.88 | 1.63 | 99 | 1004.1 |
| 20260506182506 | 3 | 299 | 3.2 | 6.4 | 0.03 | 1.88 | 1.63 | 99 | 1003.8 |
| 20260506182006 | 4 | 296 | 3.2 | 6.4 | 0.03 | 1.93 | 1.63 | 99 | 1003.6 |
| 20260506181505 | 4 | 293 | 3.2 | 6.4 | 0.03 | 1.96 | 1.63 | 99 | 1003.5 |
| 20260506180505 | 4 | 289 | 3.2 | 6.4 | 0.05 | 1.96 | 1.63 | 99 | 1003.4 |
| 20260506180006 | 4 | 294 | 3.2 | 9.7 | 0.05 | 1.96 | 1.63 | 99 | 1003.5 |
| 20260506175006 | 3 | 344 | 6.4 | 6.4 | 0.05 | 1.98 | 1.63 | 99 | 1003.2 |
| 20260506174505 | 4 | 331 | 0.0 | 9.7 | 0.03 | 1.96 | 1.60 | 99 | 1003.4 |
| 20260506174006 | 3 | 319 | 3.2 | 9.7 | 0.05 | 1.96 | 1.60 | 99 | 1003.2 |
| 20260506173505 | 4 | 318 | 3.2 | 9.7 | 0.05 | 1.96 | 1.60 | 99 | 1003.1 |
| 20260506173006 | 4 | 319 | 4.8 | 9.7 | 0.05 | 1.96 | 1.60 | 99 | 1002.9 |
| 20260506172506 | 4 | 312 | 4.8 | 9.7 | 0.10 | 1.96 | 1.60 | 99 | 1003.0 |
| 20260506172006 | 4 | 318 | 3.2 | 9.7 | 0.10 | 1.96 | 1.60 | 99 | 1003.1 |
| 20260506171505 | 4 | 321 | 3.2 | 9.7 | 0.10 | 1.96 | 1.60 | 99 | 1003.2 |
| 20260506171006 | 4 | 310 | 6.4 | 9.7 | 0.10 | 1.96 | 1.60 | 99 | 1002.8 |
| 20260506170505 | 4 | 309 | 4.8 | 9.7 | 0.05 | 1.96 | 1.55 | 99 | 1003.2 |
| 20260506170006 | 4 | 311 | 4.8 | 9.7 | 0.05 | 1.96 | 1.55 | 99 | 1003.1 |
| 20260506165505 | 4 | 312 | 4.8 | 9.7 | 0.05 | 1.96 | 1.55 | 99 | 1003.0 |
| 20260506165006 | 4 | 315 | 3.2 | 11.3 | 0.05 | 1.96 | 1.55 | 99 | 1002.8 |
| 20260506164506 | 4 | 310 | 4.8 | 11.3 | 0.05 | 1.96 | 1.55 | 99 | 1002.9 |
| 20260506164006 | 4 | 306 | 6.4 | 11.3 | 0.03 | 1.93 | 1.52 | 99 | 1003.0 |
| 20260506163506 | 4 | 310 | 3.2 | 9.7 | 0.03 | 1.93 | 1.52 | 99 | 1003.0 |
| 20260506163005 | 4 | 311 | 3.2 | 9.7 | 0.03 | 1.93 | 1.52 | 99 | 1002.9 |
| 20260506162506 | 5 | 312 | 4.8 | 9.7 | 0.00 | 1.88 | 1.50 | 99 | 1002.8 |
| 20260506161506 | 5 | 312 | 3.2 | 6.4 | 0.00 | 1.88 | 1.50 | 99 | 1002.4 |
| 20260506161006 | 5 | 303 | 4.8 | 6.4 | 0.00 | 1.88 | 1.50 | 99 | 1002.4 |
| 20260506160506 | 5 | 303 | 3.2 | 6.4 | 0.00 | 1.88 | 1.50 | 99 | 1002.3 |
| 20260506160006 | 5 | 311 | 3.2 | 6.4 | 0.00 | 1.88 | 1.50 | 99 | 1002.3 |
| 20260506155506 | 5 | 306 | 3.2 | 6.4 | 0.00 | 1.88 | 1.50 | 99 | 1002.1 |
| 20260506155006 | 5 | 306 | 3.2 | 6.4 | 0.05 | 1.88 | 1.50 | 99 | 1002.2 |
| 20260506154506 | 5 | 306 | 4.8 | 6.4 | 0.10 | 1.88 | 1.50 | 99 | 1002.4 |
| 20260506154006 | 6 | 306 | 3.2 | 6.4 | 0.13 | 1.88 | 1.50 | 99 | 1002.3 |
| 20260506153006 | 6 | 303 | 3.2 | 6.4 | 0.15 | 1.88 | 1.50 | 99 | 1002.4 |
| 20260506152505 | 6 | 309 | 3.2 | 6.4 | 0.18 | 1.88 | 1.50 | 99 | 1002.5 |
| 20260506152006 | 6 | 316 | 3.2 | 6.4 | 0.18 | 1.88 | 1.50 | 99 | 1002.5 |
| 20260506151005 | 5 | 54 | 3.2 | 11.3 | 0.30 | 1.88 | 1.50 | 99 | 1002.5 |
| 20260506150506 | 5 | 62 | 3.2 | 12.9 | 0.33 | 1.88 | 1.50 | 99 | 1002.7 |
| 20260506150006 | 5 | 44 | 6.4 | 12.9 | 0.33 | 1.93 | 1.50 | 99 | 1002.8 |
| 20260506145005 | 6 | 357 | 3.2 | 6.4 | 0.28 | 1.85 | 1.45 | 99 | 1002.5 |
| 20260506144506 | 5 | 354 | 3.2 | 6.4 | 0.28 | 1.83 | 1.42 | 99 | 1002.7 |
| 20260506144006 | 5 | 7 | 3.2 | 6.4 | 0.23 | 1.80 | 1.42 | 99 | 1002.9 |
| 20260506143506 | 5 | 354 | 1.6 | 3.2 | 0.20 | 1.78 | 1.35 | 99 | 1003.1 |
| 20260506143005 | 5 | 127 | 0.0 | 6.4 | 0.20 | 1.78 | 1.35 | 99 | 1002.6 |
| 20260506142505 | 6 | 7 | 3.2 | 6.4 | 0.18 | 1.75 | 1.32 | 99 | 1002.9 |
| 20260506142006 | 6 | 67 | 3.2 | 6.4 | 0.18 | 1.75 | 1.32 | 99 | 1002.8 |
| 20260506141506 | 7 | 102 | 1.6 | 12.9 | 0.13 | 1.68 | 1.27 | 99 | 1003.3 |
| 20260506141006 | 6 | 91 | 4.8 | 17.7 | 0.05 | 1.65 | 1.19 | 99 | 1003.1 |
| 20260506140511 | 6 | 84 | 6.4 | 17.7 | 0.05 | 1.63 | 1.17 | 99 | 1003.1 |
| 20260506140006 | 7 | 61 | 3.2 | 17.7 | 0.05 | 1.63 | 1.17 | 99 | 1002.9 |
| 20260506135506 | 7 | 61 | 3.2 | 17.7 | 0.10 | 1.63 | 1.17 | 99 | 1002.7 |
| 20260506135005 | 7 | 80 | 4.8 | 17.7 | 0.10 | 1.63 | 1.17 | 99 | 1002.7 |
| 20260506134506 | 7 | 73 | 4.8 | 17.7 | 0.05 | 1.60 | 1.14 | 99 | 1002.6 |
| 20260506134006 | 7 | 67 | 6.4 | 12.9 | 0.05 | 1.60 | 1.14 | 99 | 1002.7 |
| 20260506133506 | 7 | 77 | 3.2 | 12.9 | 0.05 | 1.63 | 1.14 | 99 | 1003.0 |
| 20260506132506 | 7 | 75 | 3.2 | 17.7 | 0.05 | 1.63 | 1.14 | 99 | 1002.9 |
| 20260506132006 | 7 | 84 | 6.4 | 20.9 | 0.05 | 1.65 | 1.14 | 99 | 1003.1 |
| 20260506131506 | 7 | 83 | 8.0 | 20.9 | 0.05 | 1.65 | 1.14 | 99 | 1003.3 |
| 20260506131006 | 7 | 77 | 6.4 | 25.7 | 0.05 | 1.65 | 1.14 | 99 | 1002.8 |
| 20260506130506 | 7 | 82 | 8.0 | 32.2 | 0.03 | 1.63 | 1.12 | 99 | 1003.0 |
| 20260506125505 | 7 | 75 | 14.5 | 24.1 | 0.00 | 1.60 | 1.09 | 99 | 1002.2 |
| 20260506125005 | 7 | 79 | 12.9 | 29.0 | 0.00 | 1.60 | 1.09 | 99 | 1002.3 |
| 20260506124506 | 7 | 80 | 9.7 | 29.0 | 0.03 | 1.60 | 1.09 | 99 | 1002.1 |
| 20260506124005 | 7 | 72 | 9.7 | 27.4 | 0.03 | 1.60 | 1.09 | 99 | 1002.2 |
| 20260506123506 | 7 | 72 | 6.4 | 29.0 | 0.03 | 1.60 | 1.09 | 99 | 1002.2 |
| 20260506123005 | 7 | 79 | 6.4 | 29.0 | 0.03 | 1.60 | 1.09 | 99 | 1002.6 |
| 20260506122506 | 7 | 72 | 8.0 | 24.1 | 0.03 | 1.60 | 1.09 | 99 | 1002.3 |
| 20260506122006 | 7 | 74 | 8.0 | 37.0 | 0.05 | 1.63 | 1.09 | 99 | 1002.3 |
| 20260506121506 | 7 | 86 | 17.7 | 37.0 | 0.05 | 1.63 | 1.09 | 99 | 1002.5 |
| 20260506121005 | 6 | 90 | 16.1 | 35.4 | 0.05 | 1.63 | 1.09 | 99 | 1002.4 |
| 20260506120505 | 6 | 74 | 9.7 | 25.7 | 0.05 | 1.63 | 1.09 | 99 | 1002.4 |
| 20260506120006 | 6 | 66 | 6.4 | 37.0 | 0.05 | 1.63 | 1.09 | 99 | 1002.6 |
| 20260506115506 | 6 | 79 | 8.0 | 37.0 | 0.05 | 1.63 | 1.09 | 99 | 1002.4 |
| 20260506115006 | 6 | 83 | 22.5 | 37.0 | 0.05 | 1.63 | 1.09 | 99 | 1002.4 |
| 20260506114505 | 6 | 82 | 14.5 | 33.8 | 0.03 | 1.60 | 1.04 | 99 | 1002.5 |
| 20260506114005 | 6 | 71 | 6.4 | 40.2 | 0.03 | 1.60 | 1.04 | 99 | 1002.5 |
| 20260506113506 | 6 | 67 | 17.7 | 40.2 | 0.03 | 1.60 | 1.04 | 99 | 1002.3 |
| 20260506113005 | 6 | 79 | 11.3 | 37.0 | 0.03 | 1.60 | 1.04 | 99 | 1002.4 |
| 20260506112506 | 6 | 80 | 8.0 | 37.0 | 0.00 | 1.55 | 1.02 | 99 | 1002.6 |
| 20260506111506 | 6 | 74 | 12.9 | 27.4 | 0.00 | 1.55 | 1.02 | 99 | 1002.6 |
| 20260506110506 | 6 | 77 | 6.4 | 37.0 | 0.00 | 1.55 | 1.02 | 99 | 1002.5 |
| 20260506110005 | 6 | 77 | 9.7 | 27.4 | 0.00 | 1.55 | 1.02 | 99 | 1002.6 |
| 20260506105506 | 6 | 84 | 8.0 | 29.0 | 0.00 | 1.55 | 1.02 | 99 | 1002.8 |
| 20260506105005 | 6 | 88 | 11.3 | 29.0 | 0.00 | 1.55 | 1.02 | 99 | 1002.9 |
| 20260506104506 | 6 | 70 | 4.8 | 35.4 | 0.00 | 1.55 | 1.02 | 99 | 1002.8 |
| 20260506104005 | 6 | 71 | 11.3 | 40.2 | 0.00 | 1.55 | 1.02 | 99 | 1002.5 |
| 20260506103506 | 6 | 95 | 12.9 | 40.2 | 0.00 | 1.55 | 1.02 | 99 | 1002.5 |
| 20260506103007 | 6 | 89 | 17.7 | 40.2 | 0.00 | 1.55 | 1.02 | 99 | 1002.5 |
| 20260506102505 | 6 | 76 | 17.7 | 33.8 | 0.00 | 1.55 | 1.02 | 99 | 1002.9 |
| 20260506102006 | 6 | 73 | 16.1 | 33.8 | 0.00 | 1.55 | 1.02 | 99 | 1002.7 |
| 20260506101505 | 6 | 69 | 11.3 | 33.8 | 0.00 | 1.55 | 1.02 | 99 | 1002.6 |
| 20260506101006 | 6 | 76 | 25.7 | 33.8 | 0.00 | 1.55 | 1.02 | 99 | 1002.5 |
| 20260506100505 | 6 | 83 | 17.7 | 27.4 | 0.00 | 1.55 | 1.02 | 99 | 1002.5 |
| 20260506095506 | 5 | 78 | 6.4 | 32.2 | 0.03 | 1.55 | 1.02 | 99 | 1002.5 |
| 20260506095005 | 5 | 74 | 11.3 | 32.2 | 0.05 | 1.55 | 1.02 | 99 | 1002.5 |
| 20260506094506 | 5 | 79 | 6.4 | 37.0 | 0.10 | 1.55 | 1.02 | 99 | 1002.6 |
| 20260506094005 | 5 | 88 | 12.9 | 37.0 | 0.15 | 1.60 | 1.02 | 99 | 1002.6 |
| 20260506093506 | 5 | 97 | 6.4 | 29.0 | 0.18 | 1.60 | 1.02 | 99 | 1002.6 |
| 20260506093005 | 5 | 97 | 14.5 | 29.0 | 0.18 | 1.60 | 1.02 | 99 | 1002.2 |
| 20260506092506 | 5 | 57 | 6.4 | 29.0 | 0.18 | 1.60 | 1.02 | 99 | 1002.5 |
| 20260506092005 | 5 | 46 | 16.1 | 29.0 | 0.20 | 1.60 | 1.02 | 99 | 1002.2 |
| 20260506091505 | 5 | 45 | 9.7 | 38.6 | 0.20 | 1.60 | 1.02 | 99 | 1002.3 |
| 20260506091005 | 5 | 56 | 14.5 | 38.6 | 0.23 | 1.60 | 1.02 | 99 | 1001.9 |
| 20260506090505 | 5 | 80 | 8.0 | 35.4 | 0.23 | 1.63 | 1.02 | 99 | 1001.7 |
| 20260506090005 | 5 | 76 | 3.2 | 35.4 | 0.23 | 1.63 | 1.02 | 99 | 1002.4 |
| 20260506085005 | 5 | 84 | 14.5 | 32.2 | 0.18 | 1.55 | 0.97 | 99 | 1002.3 |
| 20260506084506 | 5 | 79 | 11.3 | 27.4 | 0.18 | 1.52 | 0.94 | 99 | 1002.1 |
| 20260506084005 | 5 | 61 | 6.4 | 24.1 | 0.13 | 1.47 | 0.86 | 99 | 1002.7 |
| 20260506083506 | 5 | 67 | 9.7 | 27.4 | 0.10 | 1.45 | 0.84 | 99 | 1002.4 |
| 20260506083005 | 5 | 69 | 4.8 | 27.4 | 0.13 | 1.47 | 0.84 | 99 | 1002.3 |
| 20260506082505 | 5 | 72 | 9.7 | 20.9 | 0.13 | 1.47 | 0.84 | 99 | 1002.5 |
| 20260506082005 | 5 | 86 | 6.4 | 20.9 | 0.10 | 1.45 | 0.81 | 99 | 1002.7 |
| 20260506081505 | 5 | 76 | 6.4 | 22.5 | 0.10 | 1.45 | 0.81 | 99 | 1002.4 |
| 20260506081006 | 5 | 59 | 6.4 | 35.4 | 0.05 | 1.45 | 0.79 | 99 | 1002.4 |
| 20260506080505 | 5 | 50 | 3.2 | 35.4 | 0.05 | 1.45 | 0.79 | 99 | 1002.4 |
| 20260506073505 | 5 | 71 | 9.7 | 29.0 | 0.03 | 1.42 | 0.76 | 99 | 1002.8 |
| 20260506073006 | 5 | 62 | 9.7 | 25.7 | 0.00 | 1.37 | 0.71 | 99 | 1002.6 |
| 20260506072006 | 5 | 71 | 9.7 | 27.4 | 0.00 | 1.47 | 0.71 | 99 | 1002.6 |
| 20260506071505 | 5 | 65 | 6.4 | 17.7 | 0.03 | 1.50 | 0.71 | 99 | 1002.5 |
| 20260506071006 | 5 | 72 | 3.2 | 24.1 | 0.03 | 1.52 | 0.71 | 99 | 1002.7 |
| 20260506070505 | 5 | 70 | 3.2 | 24.1 | 0.03 | 1.55 | 0.71 | 99 | 1002.6 |
| 20260506062505 | 5 | 63 | 8.0 | 24.1 | 0.10 | 1.70 | 0.71 | 99 | 1002.6 |
| 20260506062006 | 5 | 63 | 12.9 | 22.5 | 0.10 | 1.70 | 0.71 | 99 | 1002.5 |
| 20260506061506 | 5 | 64 | 12.9 | 22.5 | 0.10 | 1.68 | 0.69 | 99 | 1002.3 |
| 20260506061006 | 5 | 56 | 11.3 | 24.1 | 0.10 | 1.68 | 0.69 | 99 | 1002.7 |
| 20260506060506 | 5 | 54 | 6.4 | 24.1 | 0.10 | 1.70 | 0.69 | 99 | 1002.7 |
| 20260506051006 | 6 | 65 | 6.4 | 27.4 | 0.13 | 1.65 | 0.61 | 99 | 1002.9 |
| 20260506045005 | 6 | 85 | 9.7 | 25.7 | 0.10 | 1.63 | 0.56 | 99 | 1003.1 |
| 20260506044506 | 6 | 73 | 8.0 | 25.7 | 0.05 | 1.60 | 0.53 | 99 | 1003.1 |
| 20260506044006 | 6 | 78 | 11.3 | 22.5 | 0.03 | 1.55 | 0.51 | 99 | 1003.1 |
| 20260506043506 | 6 | 82 | 6.4 | 17.7 | 0.05 | 1.55 | 0.51 | 99 | 1003.3 |
| 20260506043005 | 6 | 79 | 9.7 | 25.7 | 0.15 | 1.55 | 0.51 | 99 | 1003.3 |
| 20260506042506 | 6 | 75 | 6.4 | 25.7 | 0.15 | 1.52 | 0.48 | 99 | 1003.2 |
| 20260506042005 | 6 | 77 | 6.4 | 17.7 | 0.15 | 1.52 | 0.48 | 99 | 1003.5 |
| 20260506041506 | 6 | 83 | 6.4 | 17.7 | 0.15 | 1.52 | 0.48 | 99 | 1003.1 |
| 20260506041005 | 6 | 80 | 8.0 | 17.7 | 0.15 | 1.52 | 0.48 | 99 | 1003.5 |
| 20260506040506 | 6 | 76 | 6.4 | 20.9 | 0.18 | 1.52 | 0.48 | 99 | 1003.2 |
| 20260506040006 | 6 | 75 | 6.4 | 20.9 | 0.20 | 1.52 | 0.48 | 99 | 1003.6 |
| 20260506035505 | 6 | 84 | 4.8 | 22.5 | 0.23 | 1.52 | 0.48 | 99 | 1003.3 |
| 20260506035006 | 6 | 82 | 3.2 | 22.5 | 0.28 | 1.52 | 0.48 | 99 | 1003.4 |
| 20260506034506 | 6 | 85 | 3.2 | 20.9 | 0.28 | 1.52 | 0.48 | 99 | 1003.4 |
| 20260506034005 | 6 | 95 | 4.8 | 20.9 | 0.28 | 1.52 | 0.48 | 99 | 1003.4 |
| 20260506033506 | 6 | 91 | 12.9 | 20.9 | 0.23 | 1.50 | 0.46 | 99 | 1003.3 |
| 20260506033006 | 6 | 90 | 8.0 | 20.9 | 0.15 | 1.42 | 0.36 | 99 | 1003.5 |
| 20260506032505 | 6 | 89 | 6.4 | 20.9 | 0.13 | 1.37 | 0.33 | 99 | 1003.5 |
| 20260506032005 | 6 | 85 | 3.2 | 17.7 | 0.13 | 1.37 | 0.33 | 99 | 1003.5 |
| 20260506031505 | 6 | 85 | 6.4 | 22.5 | 0.13 | 1.37 | 0.33 | 99 | 1003.6 |
| 20260506031006 | 6 | 90 | 4.8 | 22.5 | 0.13 | 1.37 | 0.33 | 99 | 1003.7 |
| 20260506030505 | 6 | 87 | 6.4 | 20.9 | 0.13 | 1.35 | 0.30 | 99 | 1003.7 |
| 20260506030005 | 6 | 89 | 6.4 | 12.9 | 0.10 | 1.32 | 0.28 | 99 | 1003.9 |
| 20260506025506 | 6 | 91 | 6.4 | 20.9 | 0.05 | 1.30 | 0.23 | 99 | 1003.7 |
| 20260506025006 | 6 | 87 | 3.2 | 20.9 | 0.03 | 1.27 | 0.20 | 99 | 1004.2 |
| 20260506024505 | 6 | 82 | 6.4 | 20.9 | 0.03 | 1.27 | 0.20 | 99 | 1004.1 |
| 20260506024006 | 6 | 77 | 9.7 | 17.7 | 0.03 | 1.27 | 0.20 | 99 | 1004.0 |
| 20260506023505 | 6 | 84 | 4.8 | 17.7 | 0.03 | 1.27 | 0.20 | 99 | 1004.1 |
| 20260506023006 | 6 | 90 | 4.8 | 12.9 | 0.03 | 1.27 | 0.20 | 99 | 1004.0 |
| 20260506022505 | 6 | 77 | 6.4 | 25.7 | 0.03 | 1.27 | 0.20 | 99 | 1004.3 |
| 20260506022005 | 6 | 73 | 6.4 | 25.7 | 0.03 | 1.27 | 0.20 | 99 | 1004.4 |
| 20260506021506 | 6 | 88 | 6.4 | 20.9 | 0.03 | 1.27 | 0.20 | 99 | 1004.3 |
| 20260506021005 | 6 | 91 | 4.8 | 17.7 | 0.03 | 1.27 | 0.20 | 99 | 1004.3 |
| 20260506020506 | 6 | 67 | 6.4 | 17.7 | 0.00 | 1.22 | 0.18 | 99 | 1004.4 |
| 20260506020005 | 6 | 65 | 4.8 | 17.7 | 0.00 | 1.22 | 0.18 | 99 | 1004.5 |
| 20260506015506 | 6 | 76 | 4.8 | 12.9 | 0.00 | 1.22 | 0.18 | 99 | 1004.2 |
| 20260506015006 | 6 | 88 | 6.4 | 12.9 | 0.00 | 1.22 | 0.18 | 99 | 1004.4 |
| 20260506014505 | 6 | 90 | 3.2 | 12.9 | 0.00 | 1.22 | 0.18 | 99 | 1004.5 |
| 20260506014006 | 6 | 94 | 6.4 | 9.7 | 0.00 | 1.22 | 0.18 | 99 | 1004.5 |
| 20260506013506 | 6 | 75 | 3.2 | 12.9 | 0.00 | 1.22 | 0.18 | 99 | 1004.5 |
| 20260506013005 | 6 | 61 | 1.6 | 12.9 | 0.00 | 1.22 | 0.18 | 99 | 1004.5 |
| 20260506012506 | 6 | 71 | 4.8 | 17.7 | 0.00 | 1.22 | 0.18 | 99 | 1004.6 |
| 20260506012005 | 6 | 77 | 4.8 | 17.7 | 0.00 | 1.22 | 0.18 | 99 | 1004.7 |
| 20260506011505 | 6 | 74 | 6.4 | 17.7 | 0.00 | 1.22 | 0.18 | 99 | 1004.8 |
| 20260506011006 | 6 | 79 | 3.2 | 12.9 | 0.00 | 1.22 | 0.18 | 99 | 1004.7 |
| 20260506010505 | 6 | 85 | 4.8 | 12.9 | 0.03 | 1.22 | 0.18 | 99 | 1004.8 |
| 20260506010006 | 6 | 84 | 6.4 | 12.9 | 0.03 | 1.22 | 0.18 | 99 | 1004.8 |
| 20260506005505 | 6 | 81 | 3.2 | 12.9 | 0.10 | 1.22 | 0.18 | 99 | 1004.9 |
| 20260506005006 | 6 | 80 | 3.2 | 14.5 | 0.10 | 1.22 | 0.18 | 99 | 1005.1 |
| 20260506003505 | 6 | 82 | 6.4 | 17.7 | 0.18 | 1.22 | 0.18 | 99 | 1005.2 |
| 20260506003005 | 6 | 80 | 6.4 | 12.9 | 0.18 | 1.22 | 0.18 | 99 | 1005.1 |
| 20260506002506 | 6 | 83 | 3.2 | 12.9 | 0.18 | 1.22 | 0.18 | 99 | 1005.1 |
| 20260506001506 | 6 | 86 | 6.4 | 14.5 | 0.18 | 1.22 | 0.18 | 99 | 1005.2 |
| 20260506001005 | 6 | 77 | 6.4 | 14.5 | 0.18 | 1.22 | 0.18 | 99 | 1005.1 |
| 20260506000505 | 6 | 77 | 3.2 | 6.4 | 0.15 | 1.19 | 0.15 | 99 | 1005.3 |
| 20260505235505 | 6 | 84 | 3.2 | 12.9 | 0.10 | 1.14 | 0.10 | 99 | 1005.5 |
| 20260505235005 | 6 | 86 | 3.2 | 9.7 | 0.10 | 1.14 | 0.10 | 99 | 1005.5 |
| 20260505234506 | 6 | 87 | 3.2 | 9.7 | 0.05 | 1.12 | 0.05 | 99 | 1005.6 |
| 20260505234006 | 6 | 82 | 3.2 | 9.7 | 0.00 | 1.04 | 0.00 | 99 | 1005.6 |
| 20260505233505 | 6 | 85 | 3.2 | 9.7 | 0.00 | 1.04 | 0.00 | 99 | 1005.6 |
| 20260505233005 | 6 | 90 | 3.2 | 9.7 | 0.00 | 1.04 | 0.00 | 99 | 1005.5 |
| 20260505232506 | 6 | 83 | 3.2 | 9.7 | 0.00 | 1.04 | 0.00 | 99 | 1005.7 |
| 20260505231506 | 6 | 94 | 3.2 | 9.7 | 0.00 | 1.04 | 0.00 | 99 | 1005.8 |
| 20260505231005 | 6 | 91 | 3.2 | 6.4 | 0.00 | 1.04 | 0.00 | 99 | 1006.0 |